Taunton, MA

8:03 AM EDT on September 25, 2017 (GMT -0400)
Taunton Municipal

Weather History for KTAN - January, 2013

Change the Weather History Date:

Monday, January 14, 2013

  Actual Average Record
Temperature  
Mean Temperature 54 °F -  
Max Temperature 62 °F 36 °F 64 °F (2005)
Min Temperature 42 °F 13 °F -10 °F (1974)
Degree Days  
Heating Degree Days 12    
Growing Degree Days 4 (Base 50)    
Moisture  
Dew Point 46 °F    
Average Humidity 77    
Maximum Humidity 93    
Minimum Humidity 40    
Precipitation  
Precipitation 0.02 in - - ()
Sea Level Pressure  
Sea Level Pressure 30.04 in    
Wind  
Wind Speed 7 mph (WSW)    
Max Wind Speed 12 mph    
Max Gust Speed 18 mph    
Visibility 9 miles    
Events Rain    
Averages and records for this station are not official NWS values.
T = Trace of Precipitation, MM = Missing Value Source: NWS Daily Summary

Daily Weather History Graph

Daily Weather History Graph

Search for Another Location

Airport or City:

Trip Planner

Search our weather history database for the weather conditions in past years. The results will help you decide how hot, cold, wet, or windy it might be!

Date:

Astronomy

Jan. 14, 2013 Rise Set
Actual Time 7:09 AM EST 4:37 PM EST
Civil Twilight 6:38 AM EST 5:08 PM EST
Nautical Twilight 6:04 AM EST 5:42 PM EST
Astronomical Twilight 5:30 AM EST 6:15 PM EST
Moon 8:37 AM EST (1/14) 8:23 PM EST (1/14)
Length of Visible Light 10h 29m
Length of Day
9h 27m
Waxing Crescent, 11% of the Moon is Illuminated
Jan 14
Waxing Crescent
Jan 18
First Quarter
Jan 26
Full
Feb 3
Last Quarter
Feb 10
New

Hourly Weather History & Observations

Time (EST) Temp. Windchill Dew Point Humidity Pressure Visibility Wind Dir Wind Speed Gust Speed Precip Events Conditions
12:36 AM 53.1 °F - 50.0 °F 89% 30.01 in 10.0 mi SSW 6.9 mph - N/A   Overcast
1:20 AM 54.0 °F - 50.0 °F 86% 30.00 in 10.0 mi Variable 6.9 mph - N/A   Overcast
1:43 AM 54.0 °F - 51.1 °F 90% 30.00 in 10.0 mi SSW 5.8 mph - N/A   Overcast
1:52 AM 54.0 °F - 51.1 °F 90% 30.01 in 10.0 mi Variable 3.5 mph - N/A   Overcast
2:11 AM 54.0 °F - 51.1 °F 90% 30.01 in 6.0 mi SW 9.2 mph 16.1 mph N/A   Overcast
2:29 AM 54.0 °F - 52.0 °F 93% 30.01 in 1.8 mi SW 8.1 mph - N/A   Overcast
2:52 AM 54.0 °F - 51.1 °F 90% 30.01 in 2.0 mi SW 10.4 mph 17.3 mph N/A   Overcast
4:52 AM 53.1 °F - 50.0 °F 89% 29.97 in 9.0 mi SW 6.9 mph - N/A   Overcast
5:52 AM 52.0 °F - 48.9 °F 89% 29.99 in 10.0 mi SSW 9.2 mph - N/A   Overcast
6:21 AM 52.0 °F - 48.9 °F 89% 29.97 in 10.0 mi Variable 6.9 mph - N/A   Overcast
7:07 AM 53.1 °F - 50.0 °F 89% 29.98 in 10.0 mi SSW 8.1 mph - N/A   Overcast
7:34 AM 53.1 °F - 50.0 °F 89% 29.94 in 8.0 mi South 8.1 mph 17.3 mph N/A   Overcast
7:52 AM 54.0 °F - 51.1 °F 90% 29.94 in 9.0 mi South 10.4 mph - N/A   Overcast
7:59 AM 54.0 °F - 51.1 °F 90% 29.92 in 10.0 mi South 9.2 mph 18.4 mph N/A   Overcast
8:52 AM 54.0 °F - 52.0 °F 93% 29.98 in 8.0 mi SW 8.1 mph - N/A   Overcast
9:14 AM 53.1 °F - 50.0 °F 89% 30.00 in 2.0 mi WSW 11.5 mph 18.4 mph N/A   Overcast
9:37 AM 53.1 °F - 50.0 °F 89% 30.00 in 6.0 mi SW 6.9 mph - N/A   Overcast
9:52 AM 53.1 °F - 51.1 °F 93% 30.01 in 8.0 mi Variable 5.8 mph - N/A   Overcast
10:52 AM 55.0 °F - 51.1 °F 86% 30.02 in 9.0 mi WSW 4.6 mph - N/A   Overcast
11:02 AM 55.9 °F - 52.0 °F 87% 30.01 in 10.0 mi West 4.6 mph - N/A   Overcast
11:10 AM 55.9 °F - 52.0 °F 87% 30.01 in 10.0 mi West 5.8 mph - N/A   Overcast
11:52 AM 57.9 °F - 52.0 °F 81% 30.01 in 10.0 mi NW 5.8 mph - N/A   Overcast
12:07 PM 57.9 °F - 51.1 °F 78% 30.00 in 10.0 mi West 9.2 mph - N/A   Mostly Cloudy
12:20 PM 59.0 °F - 51.1 °F 75% 30.00 in 10.0 mi WSW 6.9 mph - N/A   Scattered Clouds
12:52 PM 61.0 °F - 48.9 °F 64% 29.99 in 10.0 mi WNW 5.8 mph - N/A   Clear
1:52 PM 62.1 °F - 46.9 °F 58% 30.02 in 10.0 mi WNW 11.5 mph - N/A   Clear
3:52 PM 59.0 °F - 36.0 °F 42% 30.08 in 10.0 mi West 8.1 mph - N/A   Mostly Cloudy
4:52 PM 55.0 °F - 34.0 °F 45% 30.09 in 10.0 mi Variable 5.8 mph - N/A   Clear
5:52 PM 53.1 °F - 28.9 °F 40% 30.12 in 10.0 mi WNW 6.9 mph - N/A   Clear
6:52 PM 51.1 °F - 28.0 °F 41% 30.13 in 10.0 mi NW 4.6 mph - N/A   Mostly Cloudy
7:52 PM 48.9 °F - 28.9 °F 46% 30.14 in 10.0 mi NW 5.8 mph - N/A   Overcast
8:52 PM 48.9 °F - 30.0 °F 48% 30.19 in 10.0 mi NW 6.9 mph - N/A   Overcast
9:52 PM 46.9 °F - 30.0 °F 52% 30.19 in 10.0 mi NW 4.6 mph - 0.00 in   Overcast
10:52 PM 45.0 °F 41.2 °F 30.9 °F 58% 30.25 in 10.0 mi West 6.9 mph - 0.00 in   Overcast
11:52 PM 42.1 °F 40.2 °F 35.1 °F 76% 30.25 in 10.0 mi WNW 3.5 mph - 0.02 in Rain Light Rain